Date,TemperatureHighF,TemperatureAvgF,TemperatureLowF,DewpointHighF,DewpointAvgF,DewpointLowF,HumidityHigh,HumidityAvg,HumidityLow,PressureMaxIn,PressureMinIn,WindSpeedMaxMPH,WindSpeedAvgMPH,GustSpeedMaxMPH,PrecipitationSumIn
2013-1-1,55,46,40,40,30,-52,83,63,1,30.22,30.15,12,1,15,0.00
2013-1-2,59,47,37,43,30,-55,85,63,1,30.22,30.08,7,1,10,0.00
2013-1-3,57,46,38,42,31,-54,86,64,1,30.23,30.13,6,1,9,0.00
2013-1-4,59,48,40,43,32,-52,82,63,1,30.23,30.11,7,1,9,0.00
2013-1-5,53,47,42,43,34,-48,83,67,1,30.21,30.05,8,0,13,0.25
2013-1-6,49,46,44,43,36,-50,82,71,1,30.16,30.03,7,1,12,0.11
2013-1-7,63,53,44,47,34,-50,80,57,1,30.21,30.08,5,0,10,0.00
2013-1-8,64,51,45,44,35,-49,82,62,1,30.18,30.07,7,0,7,0.00
2013-1-9,55,49,44,42,35,-47,82,66,1,30.13,29.99,12,2,22,0.01
2013-1-10,53,46,41,40,30,-50,81,64,1,30.18,30.05,10,2,16,0.00
2013-1-11,54,45,39,40,30,-53,83,64,1,30.22,30.10,12,2,18,0.00
2013-1-12,54,43,36,39,28,-55,85,65,1,30.23,30.11,9,0,9,0.00
2013-1-13,54,42,32,38,28,-56,84,67,1,30.25,30.13,9,1,16,0.00
2013-1-14,53,44,35,39,28,-54,85,63,1,30.35,30.19,10,1,18,0.00
2013-1-15,57,45,37,40,30,-50,87,64,1,30.40,30.30,8,1,10,0.00
2013-1-16,43,40,38,36,32,-54,85,77,1,30.37,30.34,5,0,7,0.00
2013-1-22,63,56,47,47,35,-47,76,54,1,30.08,29.97,7,1,9,0.00
2013-1-23,55,52,50,46,40,-46,80,67,1,30.07,29.96,7,0,8,0.13
2013-1-24,61,54,50,48,39,-45,80,64,1,30.14,30.04,7,0,8,0.00
2013-1-25,68,57,51,50,39,-46,79,60,1,30.14,29.99,7,0,12,0.00
2013-1-26,56,52,48,47,34,-47,80,61,1,30.07,29.98,18,4,23,0.00
2013-1-27,57,49,42,41,32,-50,80,61,1,30.14,30.07,11,2,15,0.00
2013-1-28,59,50,44,43,33,-48,80,62,1,30.24,30.13,10,2,14,0.00
2013-1-29,61,51,45,45,34,-49,81,61,1,30.28,30.19,7,1,14,0.00
2013-1-30,69,55,46,45,36,-48,81,59,1,30.25,30.15,7,1,11,0.00
2013-1-31,66,54,43,48,36,-50,82,60,1,30.23,30.10,7,1,9,0.00
2013-2-1,69,54,44,48,36,-50,82,61,1,30.18,30.03,7,1,12,0.00
2013-2-2,58,49,46,42,35,-48,82,66,1,30.23,30.18,10,1,16,0.00
2013-2-3,60,51,46,43,34,-48,81,61,1,30.21,30.09,10,2,14,0.00
2013-2-4,61,49,46,42,33,-48,82,63,1,30.15,30.04,10,2,20,0.00
2013-2-5,55,50,46,42,33,-48,81,62,1,30.13,30.05,11,3,21,0.00
2013-2-6,58,49,41,42,32,-51,83,61,1,30.16,30.08,14,2,17,0.00
2013-2-7,55,48,42,42,32,-49,84,63,1,30.15,30.03,11,2,17,0.31
2013-2-8,55,47,40,43,31,-50,85,62,1,30.03,29.95,13,2,23,0.18
2013-2-9,60,49,41,42,34,-52,79,64,1,30.09,29.99,10,1,13,0.00
2013-2-10,62,48,39,44,34,-52,85,65,1,30.11,29.99,6,0,9,0.00
2013-2-11,65,52,44,44,34,-48,82,59,1,30.20,30.06,15,2,16,0.00
2013-2-12,65,50,43,44,33,-51,83,61,1,30.29,30.20,7,1,12,0.00
2013-2-13,66,50,42,42,34,-50,84,62,1,30.28,30.15,9,1,14,0.00
2013-2-14,73,56,44,51,37,-48,82,59,1,30.20,30.05,7,0,12,0.00
2013-2-15,74,60,48,54,40,-47,79,58,1,30.19,30.09,7,0,9,0.00
2013-2-16,70,57,48,48,38,-44,81,59,1,30.17,29.99,9,1,19,0.00
2013-2-17,64,52,43,43,34,-50,82,60,1,30.05,29.96,15,2,19,0.00
2013-2-18,54,48,46,42,33,-48,82,63,1,30.04,29.98,13,4,20,0.00
2013-2-19,48,45,40,42,31,-51,82,64,1,29.99,29.82,12,4,22,0.44
2013-2-20,58,48,37,42,30,-52,85,60,1,30.06,29.91,15,2,17,0.00
2013-2-21,59,50,41,42,32,-51,82,59,1,30.15,30.05,13,2,16,0.00
2013-2-22,62,50,42,43,32,-52,83,60,1,30.20,30.13,17,3,22,0.00
2013-2-23,59,51,46,44,33,-50,81,59,1,30.21,30.11,12,3,19,0.01
2013-2-24,61,50,45,43,35,-49,82,64,1,30.20,30.11,12,2,17,0.00
2013-2-25,63,51,43,43,33,-50,84,60,1,30.23,30.12,10,2,16,0.00
2013-2-26,66,52,43,43,32,-51,83,58,1,30.18,30.07,13,2,20,0.00
2013-2-27,67,53,44,45,34,-50,82,59,1,30.30,30.16,12,1,17,0.00
2013-2-28,65,53,47,45,35,-46,81,60,1,30.36,30.28,13,2,20,0.00
2013-3-1,74,58,47,51,39,-48,81,59,1,30.35,30.14,7,1,10,0.00
2013-3-2,71,57,50,50,39,-45,81,61,1,30.17,30.03,17,2,20,0.00
2013-3-3,58,51,47,45,35,-47,81,62,1,30.09,30.02,20,5,23,0.03
2013-3-4,57,49,44,42,31,-49,82,61,1,30.13,30.05,16,3,22,0.00
2013-3-5,60,50,41,45,32,-50,83,61,1,30.09,29.88,16,3,26,0.08
2013-3-6,56,51,44,45,33,-48,82,61,1,30.05,29.89,20,5,26,0.11
2013-3-7,58,48,43,42,33,-50,83,63,1,30.02,29.89,10,2,13,0.05
2013-3-8,56,50,44,42,32,-50,82,60,1,30.05,29.88,22,4,30,0.05
2013-3-9,63,52,43,45,33,-50,82,58,1,30.25,30.05,12,2,18,0.00
2013-3-10,67,54,45,48,34,-50,82,58,1,30.27,30.15,13,2,16,0.00
2013-3-11,73,54,43,48,34,-50,82,59,1,30.23,30.04,15,2,18,0.00
2013-3-12,73,55,46,50,36,-48,81,59,1,30.13,29.99,9,2,16,0.00
2013-3-13,77,59,45,52,36,-49,82,54,1,30.13,29.97,7,1,9,0.00
2013-3-14,66,53,46,46,35,-46,82,60,1,30.13,30.06,10,2,23,0.00
2013-3-15,73,54,46,50,36,-47,81,60,1,30.12,29.99,14,2,22,0.00
2013-3-16,66,53,47,47,35,-48,81,59,1,30.10,29.99,19,3,25,0.00
2013-3-17,66,54,47,48,35,-47,81,58,1,30.11,30.01,17,2,22,0.00
2013-3-18,65,52,45,45,35,-48,82,62,1,30.09,30.00,16,3,25,0.00
2013-3-19,69,53,47,48,36,-47,81,61,1,30.12,30.01,10,2,24,0.08
2013-3-20,60,53,49,46,36,-45,81,63,1,30.11,30.03,13,2,17,0.12
2013-3-21,60,51,41,44,31,-52,83,58,1,30.12,29.99,13,2,17,0.01
2013-3-22,64,53,44,45,33,-50,81,58,1,30.09,30.00,11,2,17,0.00
2013-3-23,69,54,46,48,36,-47,81,59,1,30.10,30.00,12,2,17,0.00
2013-3-24,62,52,45,42,32,-49,82,58,1,30.07,29.97,15,4,25,0.00
2013-3-25,56,49,45,43,31,-50,82,60,1,30.03,29.96,13,3,22,0.00
2013-3-26,62,52,47,45,34,-48,80,59,1,30.01,29.93,15,4,19,0.00
2013-3-27,63,54,48,47,36,-45,80,61,1,30.01,29.94,13,3,18,0.00
2013-3-28,66,57,52,47,38,-45,79,59,1,30.07,29.99,14,3,16,0.00
2013-3-29,75,58,48,52,38,-46,80,58,1,30.07,29.95,13,1,19,0.00
2013-3-30,70,57,51,50,39,-46,79,61,1,30.05,29.94,13,3,21,0.09
2013-3-31,66,58,53,49,39,-44,79,59,1,30.03,29.96,16,2,19,0.10
2013-4-1,64,56,50,47,37,-44,79,58,1,30.12,30.03,13,3,19,0.62
2013-4-2,64,53,48,45,34,-47,80,60,1,30.14,30.05,13,3,21,0.00
2013-4-3,79,54,47,54,35,-48,80,59,1,30.13,29.91,15,2,24,0.00
2013-4-4,65,56,49,48,38,-44,80,60,1,30.09,29.99,14,4,21,0.44
2013-4-5,64,56,52,47,36,-45,79,57,1,30.15,30.07,15,3,17,0.01
2013-4-6,62,54,52,47,36,-45,79,60,1,30.15,30.09,16,4,20,0.03
2013-4-7,62,55,52,47,36,-45,79,60,1,30.13,29.88,16,4,23,0.09
2013-4-8,63,54,47,49,33,-49,80,56,1,30.01,29.86,16,5,28,0.01
2013-4-9,74,64,55,57,41,-43,75,54,1,30.04,29.95,12,3,18,0.00
2013-4-10,81,65,51,59,41,-40,79,52,1,30.08,29.99,15,4,23,0.00
2013-4-11,71,56,47,48,34,-48,80,55,1,30.04,29.85,16,4,19,0.00
2013-4-12,63,52,45,44,32,-48,82,57,1,29.94,29.84,16,4,23,0.00
2013-4-13,63,54,46,43,32,-48,80,55,1,29.93,29.84,22,4,24,0.00
2013-4-14,62,52,45,44,32,-49,81,57,1,29.94,29.88,17,4,26,0.00
2013-4-15,56,49,44,43,29,-50,82,56,1,29.99,29.91,20,5,37,0.16
2013-4-16,57,46,41,40,32,-52,82,67,1,30.07,29.99,5,0,10,0.00
2013-4-17,67,61,52,50,35,-42,76,48,1,30.19,30.10,13,3,19,0.00
2013-4-18,72,58,48,52,37,-47,80,56,1,30.19,30.11,15,2,20,0.00
2013-4-19,74,59,47,54,37,-46,80,55,1,30.19,30.01,13,2,21,0.00
2013-4-20,74,58,49,52,36,-45,80,55,1,30.09,29.95,16,3,20,0.00
2013-4-21,81,64,47,60,41,-46,80,55,1,30.03,29.86,11,1,15,0.00
2013-4-22,84,66,54,62,43,-44,78,53,1,29.96,29.81,12,2,18,0.00
2013-4-23,75,60,48,53,37,-45,80,54,1,29.94,29.85,19,3,25,0.00
2013-4-24,58,52,45,47,32,-48,81,57,1,29.97,29.88,20,6,26,0.00
2013-4-25,63,55,51,47,36,-44,79,58,1,30.11,29.96,14,4,20,0.00
2013-4-26,61,53,49,45,33,-47,80,57,1,30.19,30.10,15,3,24,0.00
2013-4-27,61,52,48,43,33,-48,80,58,1,30.19,30.07,16,3,22,0.00
2013-4-28,76,61,48,58,39,-48,80,55,1,30.08,29.82,10,2,15,0.00
2013-4-29,83,65,53,59,42,-44,78,53,1,29.90,29.77,16,2,17,0.00
2013-4-30,69,61,51,57,38,-45,79,54,1,29.87,29.78,17,3,22,0.00
2013-5-1,77,68,55,59,44,-40,75,52,1,30.05,29.81,11,3,16,0.00
2013-5-2,90,70,54,65,46,-44,77,53,1,30.08,29.95,13,2,16,0.00
2013-5-3,84,69,56,62,44,-44,74,53,1,30.04,29.80,14,2,20,0.00
2013-5-4,77,61,53,55,39,-43,79,54,1,29.83,29.62,22,4,29,0.00
2013-5-5,69,60,53,51,40,-42,79,57,1,29.83,29.68,12,2,19,0.00
2013-5-6,72,61,55,51,39,-43,78,55,1,29.96,29.83,14,3,18,0.00
2013-5-7,68,60,53,50,37,-43,79,54,1,30.04,29.94,16,5,20,0.00
2013-5-8,62,54,52,47,36,-45,79,59,1,30.11,30.03,12,4,22,0.00
2013-5-9,60,54,51,46,34,-46,79,56,1,30.15,30.05,23,5,25,0.00
2013-5-10,62,54,50,45,33,-46,80,57,1,30.16,30.07,16,4,28,0.00
2013-5-11,74,57,49,52,36,-47,80,56,1,30.14,29.97,12,2,17,0.00
2013-5-12,66,58,51,48,36,-45,79,55,1,30.11,30.00,16,4,23,0.00
2013-5-13,64,56,51,47,34,-46,79,55,1,30.07,29.93,18,5,28,0.00
2013-5-14,62,56,50,46,34,-46,79,55,1,30.00,29.91,22,6,34,0.00
2013-5-15,60,54,49,47,34,-45,80,56,1,30.02,29.98,19,8,32,0.00
2013-5-16,63,56,52,47,35,-45,79,56,1,30.01,29.96,16,6,25,0.00
2013-5-17,61,55,50,46,34,-46,79,55,1,30.05,29.98,21,7,27,0.00
2013-5-18,68,58,47,50,36,-47,80,54,1,30.09,30.02,16,4,26,0.00
2013-5-19,76,62,51,56,39,-45,79,54,1,30.09,29.93,16,3,23,0.00
2013-5-20,83,62,50,59,39,-44,79,53,1,29.99,29.89,22,4,29,0.00
2013-5-21,62,55,50,45,35,-45,80,56,1,29.99,29.93,20,6,31,0.00
2013-5-22,61,54,46,44,32,-47,80,54,1,30.02,29.92,15,3,23,0.00
2013-5-23,63,55,47,45,33,-48,80,54,1,30.01,29.95,16,4,25,0.00
2013-5-24,62,54,46,44,32,-49,81,55,1,30.01,29.94,18,5,26,0.00
2013-5-25,61,53,47,45,32,-48,80,55,1,30.04,29.97,22,6,29,0.00
2013-5-26,62,56,51,47,35,-45,79,56,1,30.11,30.03,18,7,26,0.00
2013-5-27,61,55,52,49,36,-44,79,59,1,30.10,29.99,17,5,23,0.08
2013-5-28,64,58,53,49,36,-43,78,55,1,29.99,29.91,17,5,26,0.02
2013-5-29,67,58,52,49,36,-44,79,53,1,29.97,29.88,15,5,24,0.00
2013-5-30,68,58,48,49,35,-48,80,54,1,29.99,29.91,12,3,17,0.00
2013-5-31,80,61,48,58,38,-44,80,53,1,30.00,29.87,21,3,24,0.00
2013-6-1,61,53,50,47,41,-44,79,69,1,29.95,29.89,8,1,12,0.00
2013-6-2,62,56,51,45,31,-45,79,50,1,29.79,29.73,16,7,26,0.00
2013-6-3,66,56,50,47,35,-44,80,55,1,29.89,29.79,26,6,28,0.00
2013-6-4,63,56,53,48,35,-45,79,55,1,29.97,29.88,16,5,25,0.00
2013-6-5,63,56,52,47,36,-45,79,57,1,30.00,29.92,16,4,23,0.00
2013-6-6,62,56,51,46,34,-46,79,56,1,29.97,29.87,17,5,22,0.00
2013-6-7,79,62,51,55,41,-44,79,56,1,29.93,29.72,10,2,16,0.00
2013-6-8,74,61,54,53,38,-44,78,53,1,29.83,29.73,22,5,35,0.08
2013-6-9,62,57,55,50,37,-44,78,58,1,29.90,29.83,20,7,25,0.00
2013-6-10,68,59,54,49,38,-42,78,55,1,29.96,29.83,17,6,23,0.00
2013-6-11,68,59,54,48,37,-44,78,54,1,29.98,29.89,14,4,28,0.00
2013-6-12,67,60,52,49,32,-45,79,46,1,30.00,29.91,16,6,25,0.00
2013-6-13,75,60,48,50,36,-45,80,53,1,30.05,29.95,12,3,23,0.00
2013-6-14,81,61,51,60,37,-43,79,53,1,29.99,29.83,19,4,23,0.00
2013-6-15,59,53,50,46,34,-47,80,58,1,30.01,29.87,18,6,30,0.00
2013-6-16,64,56,51,47,34,-46,79,54,1,30.06,30.00,22,6,25,0.00
2013-6-17,66,57,51,48,36,-46,79,55,1,30.06,30.00,28,8,34,0.00
2013-6-18,61,56,53,47,35,-45,79,55,1,30.02,29.97,22,8,28,0.00
2013-6-19,67,59,51,48,38,-45,79,55,1,30.02,29.96,14,5,28,0.00
2013-6-20,69,59,49,48,36,-45,80,53,1,30.01,29.91,15,4,21,0.00
2013-6-21,75,58,50,53,36,-46,80,54,1,29.98,29.90,17,4,28,0.00
2013-6-22,75,60,51,53,38,-46,79,54,1,29.95,29.83,21,5,28,0.00
2013-6-23,59,55,53,48,40,-44,79,64,1,29.89,29.83,17,6,26,0.03
2013-6-24,61,57,53,50,37,-45,70,56,1,29.89,29.83,15,3,16,0.04
2013-6-25,75,65,60,53,41,-40,77,54,1,29.94,29.87,13,2,17,0.12
2013-6-26,70,63,59,54,45,-40,75,59,1,30.02,29.97,7,1,10,0.02
2013-6-27,76,61,56,54,43,-39,69,59,1,30.03,29.98,7,1,13,0.00
2013-6-28,69,63,60,55,48,-36,75,63,1,29.92,29.87,12,3,18,0.00
2013-6-29,74,61,58,53,46,-42,77,64,1,29.92,29.85,6,0,9,0.00
2013-6-30,64,58,56,51,46,-40,77,67,1,29.84,29.78,10,4,20,0.00
2013-7-1,85,64,54,62,39,-44,77,51,1,29.87,29.75,15,4,25,0.00
2013-7-2,73,60,56,52,38,-43,77,54,1,29.93,29.84,26,6,31,0.00
2013-7-3,82,66,56,60,42,-42,76,52,1,29.93,29.75,16,3,21,0.00
2013-7-4,72,64,56,55,42,-41,78,53,1,29.81,29.70,22,4,25,0.00
2013-7-5,63,57,53,49,36,-44,79,55,1,29.83,29.75,20,7,32,0.00
2013-7-6,63,56,53,48,37,-44,78,58,1,29.83,29.77,19,7,27,0.00
2013-7-7,66,59,53,49,37,-44,78,54,1,29.88,29.80,19,6,25,0.00
2013-7-8,67,59,53,48,39,-43,78,56,1,29.98,29.88,16,5,22,0.00
2013-7-9,75,61,52,54,38,-45,76,53,1,30.01,29.89,13,3,16,0.00
2013-7-10,64,56,52,46,36,-45,70,55,1,29.99,29.91,18,5,28,0.00
2013-7-11,62,56,51,48,36,-45,78,56,1,29.96,29.88,15,5,25,0.00
2013-7-12,62,56,53,48,37,-44,79,58,1,29.94,29.88,21,6,26,0.00
2013-7-13,65,58,53,48,37,-45,79,55,1,29.97,29.89,20,6,23,0.00
2013-7-14,63,55,52,44,37,-45,71,57,1,30.00,29.89,16,4,24,0.00
2013-7-15,63,55,51,49,36,-46,78,58,1,29.95,29.85,17,5,24,0.00
2013-7-16,66,58,53,51,38,-45,78,57,1,30.01,29.89,16,4,17,0.00
2013-7-17,65,59,54,51,39,-43,77,57,1,30.06,30.00,16,4,25,0.00
2013-7-18,65,57,53,46,35,-45,75,54,1,30.05,29.93,17,4,26,0.00
2013-7-19,63,56,53,47,36,-45,79,55,1,29.97,29.85,16,4,24,0.00
2013-7-20,61,54,51,44,36,-46,70,59,1,29.90,29.82,15,4,20,0.00
2013-7-21,64,58,53,45,35,-44,71,52,1,29.90,29.81,15,7,22,0.00
2013-7-22,65,58,54,47,40,-43,71,58,1,29.96,29.89,15,5,25,0.00
2013-7-23,72,61,55,52,40,-41,78,56,1,29.98,29.92,16,2,20,0.00
2013-7-24,73,62,54,52,39,-43,78,53,1,29.97,29.86,16,3,25,0.00
2013-7-25,66,57,52,47,36,-45,75,56,1,30.03,29.93,17,3,22,0.00
2013-7-26,64,57,53,48,38,-44,78,58,1,30.07,29.99,16,4,21,0.00
2013-7-27,64,57,54,48,37,-44,78,57,1,30.03,29.88,16,5,22,0.00
2013-7-28,61,56,54,47,37,-44,78,59,1,29.91,29.85,17,6,22,0.00
2013-7-29,64,57,54,49,40,-44,78,61,1,30.00,29.87,17,7,25,0.00
2013-7-30,64,58,53,48,38,-44,79,58,1,30.07,30.00,15,5,32,0.00
2013-7-31,63,57,53,49,37,-45,78,57,1,30.07,29.97,19,6,28,0.00
2013-8-1,65,58,54,49,39,-44,78,59,1,30.04,29.94,21,6,27,0.00
2013-8-2,63,56,52,48,36,-45,79,58,1,29.99,29.89,20,5,26,0.00
2013-8-3,62,56,52,47,38,-45,79,59,1,29.98,29.91,22,6,25,0.00
2013-8-4,61,56,52,49,38,-45,78,59,1,30.00,29.93,22,5,29,0.00
2013-8-5,64,56,53,48,37,-45,80,60,1,30.02,29.94,16,3,21,0.00
2013-8-6,64,58,53,51,39,-45,80,59,1,30.02,29.95,14,4,25,0.00
2013-8-7,67,60,55,51,40,-42,78,59,1,30.06,30.01,14,4,17,0.02
2013-8-8,67,59,54,50,39,-43,78,58,1,30.01,29.93,17,3,27,0.04
2013-8-9,56,54,54,49,44,-44,79,71,1,29.97,29.93,9,2,16,0.01
2013-12-8,48,41,33,35,24,-40,86,59,41,29.66,29.55,13,1,13,0.00
2013-12-9,54,42,32,39,28,-40,88,65,42,29.72,29.62,15,1,20,0.00
2013-12-10,57,45,36,39,30,-40,87,65,15,29.71,29.51,10,1,10,0.00
2013-12-11,60,47,39,42,32,-40,86,64,41,29.55,29.46,10,1,11,0.00
2013-12-12,63,49,39,44,34,-40,85,65,34,29.57,29.45,8,0,9,0.00
2013-12-13,62,50,43,44,35,-40,84,65,25,29.63,29.52,7,0,9,0.00
2013-12-14,66,51,41,45,35,-40,85,64,35,29.67,29.55,9,1,10,0.00
2013-12-15,62,51,41,47,36,-40,84,63,7,29.65,29.51,9,1,10,0.00
2013-12-16,71,56,46,48,40,-40,80,61,18,29.55,29.38,7,0,9,0.00
2013-12-17,67,56,48,49,40,-40,81,62,4,29.49,29.35,7,0,11,0.00
2013-12-18,59,51,46,46,38,-40,81,67,39,29.37,29.17,20,3,25,0.00
2013-12-19,61,51,45,45,36,-40,82,63,25,29.32,29.15,17,1,22,0.00
2013-12-20,62,52,43,45,36,-40,81,63,41,29.36,29.29,12,1,13,0.00
2013-12-21,63,52,43,46,37,-40,83,66,5,29.43,29.31,10,1,12,0.00
2013-12-22,69,55,44,49,39,-40,83,63,38,29.58,29.43,7,0,9,0.00
2013-12-23,65,54,44,47,38,-40,82,63,5,29.65,29.56,8,0,9,0.00
2013-12-24,74,57,45,51,40,-40,81,61,39,29.63,29.44,7,0,8,0.00
2013-12-25,69,56,47,48,39,-40,81,62,34,29.57,29.45,10,1,12,0.00
2013-12-26,52,47,43,44,39,-40,83,76,56,29.57,29.53,4,0,6,0.00
2013-12-31,66,52,43,45,34,-40,82,59,40,29.57,29.43,9,0,10,0.00
2014-1-1,67,52,42,47,37,-40,84,64,33,29.53,29.40,6,0,7,0.00
2014-1-2,67,55,45,50,39,-40,82,62,29,29.49,29.36,8,0,9,0.00